Simultaneous Nadir Overpasses (SNOs) Predictions

Prediction of SNOs between METOP-A and TERRA Satellite Orbit:

Table of predicted SNOs for the next 14.0 days since TLE Epoch: 1/4/2020
Index Date (METOP-A) Time (METOP-A) Lat,Lon (METOP-A) SZA (METOP-A ) Date (TERRA) Time (TERRA) Lat,Lon (TERRA) SZA (TERRA ) Distance(km) Time Diff (sec)
1 01/04/2020 09:08:26 81.44, 92.70 106.93 01/04/2020 09:08:37 81.44, 92.76 106.94 0.94 11
2 01/04/2020 09:59:06 -81.43, -99.61 73.04 01/04/2020 09:58:04 -81.43, -99.77 73.09 2.65 62
3 01/07/2020 04:42:49 81.44, 159.03 106.57 01/07/2020 04:42:52 81.44, 159.11 106.58 1.45 3
4 01/07/2020 05:33:29 -81.43, -33.26 73.40 01/07/2020 05:32:19 -81.43, -33.39 73.45 2.24 70
5 01/09/2020 23:26:30 -81.44, 58.19 73.82 01/09/2020 23:27:39 -81.44, 58.06 73.80 2.23 69
6 01/10/2020 00:17:11 81.44,-134.65 106.16 01/10/2020 00:17:06 81.43,-134.54 106.16 2.02 5
7 01/12/2020 19:00:53 -81.44, 124.53 74.29 01/12/2020 19:01:54 -81.44, 124.42 74.27 1.78 61
8 01/12/2020 19:51:33 81.43, -67.93 105.73 01/12/2020 19:51:20 81.45, -67.81 105.74 2.38 13
9 01/15/2020 14:35:16 -81.44,-169.14 74.81 01/15/2020 14:36:09 -81.44,-169.22 74.80 1.47 53




NCC Satellite Simultaneous Nadir Overpasses (SNOs) Prediction Service
